KG5MMT-15 Weather Reports


time (UTC)temp
C
wind
direction
speed
KPH
gust
KPH
rain 1hr
cm
rain 24hr
cm
rain mn
cm
humidity
%
barometer
mb
20260505231216 13 95 1.6 14.5 0.00 0.00 0.00 48
20260505230716 13 293 9.7 24.1 0.00 0.00 0.00 47
20260505230216 13 312 6.4 16.1 0.00 0.00 0.00 48
20260505225716 13 323 9.7 20.9 0.00 0.00 0.00 48
20260505225216 13 310 3.2 14.5 0.00 0.00 0.00 48
20260505224716 13 298 6.4 17.7 0.00 0.00 0.00 47
20260505224216 14 309 14.5 22.5 0.00 0.00 0.00 43
20260505223716 15 254 8.0 12.9 0.00 0.00 0.00 43
20260505223216 14 299 8.0 29.0 0.00 0.00 0.00 43
20260505222716 14 219 6.4 20.9 0.00 0.00 0.00 44
20260505222216 14 80 6.4 16.1 0.00 0.00 0.00 44
20260505221716 14 172 4.8 20.9 0.00 0.00 0.00 45
20260505221216 14 331 12.9 20.9 0.00 0.00 0.00 44
20260505220716 15 326 3.2 22.5 0.00 0.00 0.00 43
20260505220216 15 160 8.0 24.1 0.00 0.00 0.00 41
20260505215716 15 306 16.1 17.7 0.00 0.00 0.00 42
20260505215216 15 267 11.3 33.8 0.00 0.00 0.00 42
20260505214716 15 338 14.5 27.4 0.00 0.00 0.00 41
20260505214216 15 323 9.7 27.4 0.00 0.00 0.00 41
20260505213716 15 327 8.0 37.0 0.00 0.00 0.00 42
20260505213216 15 298 8.0 24.1 0.00 0.00 0.00 43
20260505212716 15 2 20.9 20.9 0.00 0.00 0.00 41
20260505212216 16 184 3.2 14.5 0.00 0.00 0.00 41
20260505211716 16 226 4.8 16.1 0.00 0.00 0.00 41
20260505211216 16 222 0.0 19.3 0.00 0.00 0.00 41
20260505210716 15 135 3.2 24.1 0.00 0.00 0.00 43
20260505210216 16 274 9.7 20.9 0.00 0.00 0.00 41
20260505205716 16 351 3.2 16.1 0.00 0.00 0.00 40
20260505205216 16 299 6.4 24.1 0.00 0.00 0.00 43
20260505204716 15 293 3.2 17.7 0.00 0.00 0.00 43
20260505204216 15 329 6.4 17.7 0.00 0.00 0.00 47
20260505203716 14 185 3.2 12.9 0.00 0.00 0.00 49
20260505203216 13 338 6.4 19.3 0.00 0.00 0.00 50
20260505202716 13 358 3.2 20.9 0.00 0.00 0.00 49
20260505202216 14 205 6.4 9.7 0.00 0.00 0.00 51
20260505201716 14 274 0.0 14.5 0.00 0.00 0.00 52
20260505201216 14 1 9.7 19.3 0.00 0.00 0.00 44
20260505200716 15 312 9.7 20.9 0.00 0.00 0.00 42
20260505200216 15 358 9.7 11.3 0.00 0.00 0.00 42
20260505195716 15 358 6.4 20.9 0.00 0.00 0.00 44
20260505195216 14 192 4.8 20.9 0.00 0.00 0.00 44
20260505194716 14 67 6.4 19.3 0.00 0.00 0.00 44
20260505194216 15 305 6.4 19.3 0.00 0.00 0.00 43
20260505193716 15 213 0.0 27.4 0.00 0.00 0.00 43
20260505193216 15 322 0.0 22.5 0.00 0.00 0.00 43
20260505192717 15 309 20.9 20.9 0.00 0.00 0.00 43
20260505192217 15 315 11.3 16.1 0.00 0.00 0.00 42
20260505191716 15 286 6.4 16.1 0.00 0.00 0.00 41
20260505191216 15 194 3.2 12.9 0.00 0.00 0.00 41
20260505190717 15 208 3.2 12.9 0.00 0.00 0.00 40
20260505190217 15 229 4.8 24.1 0.00 0.00 0.00 40
20260505185716 15 234 11.3 27.4 0.00 0.00 0.00 40
20260505185217 15 358 8.0 22.5 0.00 0.00 0.00 40
20260505184717 15 344 8.0 16.1 0.00 0.00 0.00 38
20260505184217 15 337 6.4 19.3 0.00 0.00 0.00 38
20260505183717 16 296 4.8 16.1 0.00 0.00 0.00 36
20260505183217 15 289 4.8 16.1 0.00 0.00 0.00 39
20260505182717 15 302 12.9 29.0 0.00 0.00 0.00 40
20260505182217 15 260 14.5 27.4 0.00 0.00 0.00 39
20260505181717 16 324 14.5 29.0 0.00 0.00 0.00 36
20260505181217 17 337 11.3 22.5 0.00 0.00 0.00 35
20260505180717 16 327 8.0 17.7 0.00 0.00 0.00 37
20260505180217 16 237 3.2 17.7 0.00 0.00 0.00 37
20260505175717 16 115 4.8 14.5 0.00 0.00 0.00 36
20260505175217 16 144 8.0 20.9 0.00 0.00 0.00 37
20260505174717 16 78 3.2 8.0 0.00 0.00 0.00 37
20260505174217 15 22 0.0 8.0 0.00 0.00 0.00 37
20260505173717 15 185 4.8 12.9 0.00 0.00 0.00 38
20260505173217 15 320 11.3 20.9 0.00 0.00 0.00 37
20260505172717 16 303 4.8 14.5 0.00 0.00 0.00 38
20260505172217 16 261 3.2 17.7 0.00 0.00 0.00 37
20260505171717 15 144 12.9 14.5 0.00 0.00 0.00 38
20260505171217 15 265 3.2 14.5 0.00 0.00 0.00 37
20260505170717 15 310 14.5 17.7 0.00 0.00 0.00 38
20260505170217 14 317 11.3 22.5 0.00 0.00 0.00 38
20260505165717 15 340 16.1 17.7 0.00 0.00 0.00 38
20260505165217 13 293 8.0 16.1 0.00 0.00 0.00 40
20260505164717 13 310 12.9 12.9 0.00 0.00 0.00 41
20260505164217 13 108 4.8 9.7 0.00 0.00 0.00 40
20260505163717 13 215 3.2 8.0 0.00 0.00 0.00 40
20260505163217 13 303 4.8 12.9 0.00 0.00 0.00 39
20260505162717 13 137 4.8 8.0 0.00 0.00 0.00 39
20260505162217 13 234 4.8 8.0 0.00 0.00 0.00 40
20260505161717 13 338 4.8 17.7 0.00 0.00 0.00 39
20260505161217 13 284 4.8 12.9 0.00 0.00 0.00 39
20260505160717 13 160 3.2 17.7 0.00 0.00 0.00 39
20260505160217 13 319 6.4 14.5 0.00 0.00 0.00 39
20260505153217 13 316 12.9 14.5 0.00 0.00 0.00 36
20260505152717 13 36 4.8 11.3 0.00 0.00 0.00 38
20260505152217 13 254 8.0 12.9 0.00 0.00 0.00 39
20260505151717 13 333 3.2 14.5 0.00 0.00 0.00 38
20260505151217 13 219 6.4 12.9 0.00 0.00 0.00 37
20260505150717 13 357 11.3 14.5 0.00 0.00 0.00 37
20260505150217 12 324 8.0 16.1 0.00 0.00 0.00 36
20260505140217 12 74 1.6 3.2 0.00 0.00 0.00 37
20260505130217 6 265 3.2 8.0 0.00 0.00 0.00 60
20260505124717 6 247 0.0 4.8 0.00 0.00 0.00 57
20260505124217 6 299 3.2 4.8 0.00 0.00 0.00 60
20260505123717 6 165 1.6 4.8 0.00 0.00 0.00 57
20260505123217 6 354 3.2 4.8 0.00 0.00 0.00 58
20260505122717 7 247 0.0 3.2 0.00 0.00 0.00 54
20260505122217 7 291 1.6 8.0 0.00 0.00 0.00 55
20260505121717 7 309 1.6 1.6 0.00 0.00 0.00 57
20260505121217 7 296 1.6 8.0 0.00 0.00 0.00 54
20260505120717 7 260 0.0 0.0 0.00 0.00 0.00 54
20260505120217 7 260 0.0 0.0 0.00 0.00 0.00 54
20260505115717 7 260 0.0 6.4 0.00 0.00 0.00 55
20260505115217 7 236 3.2 9.7 0.00 0.00 0.00 47
20260505114717 7 306 4.8 4.8 0.00 0.00 0.00 55
20260505114217 7 295 1.6 3.2 0.00 0.00 0.00 53
20260505113717 7 307 0.0 3.2 0.00 0.00 0.00 52
20260505113217 7 247 0.0 3.2 0.00 0.00 0.00 52
20260505112717 7 293 1.6 6.4 0.00 0.00 0.00 51
20260505112217 7 312 0.0 0.0 0.00 0.00 0.00 51
20260505111717 8 341 0.0 1.6 0.00 0.00 0.00 50
20260505111217 8 307 1.6 4.8 0.00 0.00 0.00 49
20260505110717 8 357 3.2 3.2 0.00 0.00 0.00 48
20260505110217 8 319 1.6 8.0 0.00 0.00 0.00 47
20260505102217 11 289 3.2 3.2 0.00 0.00 0.00 39
20260505101717 11 123 0.0 1.6 0.00 0.00 0.00 38
20260505101217 11 174 0.0 11.3 0.00 0.00 0.00 37
20260505100717 11 324 11.3 19.3 0.00 0.00 0.00 37
20260505100217 11 71 1.6 8.0 0.00 0.00 0.00 39
20260505095717 12 347 4.8 6.4 0.00 0.00 0.00 37
20260505095217 12 133 3.2 12.9 0.00 0.00 0.00 35
20260505094717 12 299 1.6 11.3 0.00 0.00 0.00 35
20260505094217 12 154 3.2 8.0 0.00 0.00 0.00 34
20260505093717 13 70 4.8 16.1 0.00 0.00 0.00 33
20260505093217 12 19 8.0 12.9 0.00 0.00 0.00 33
20260505092717 13 261 8.0 14.5 0.00 0.00 0.00 33
20260505092217 13 233 4.8 19.3 0.00 0.00 0.00 33
20260505091717 13 40 6.4 11.3 0.00 0.00 0.00 33
20260505091217 13 352 6.4 19.3 0.00 0.00 0.00 32
20260505090717 13 43 3.2 11.3 0.00 0.00 0.00 32
20260505090217 13 43 6.4 17.7 0.00 0.00 0.00 32
20260505085717 13 28 11.3 30.6 0.00 0.00 0.00 32
20260505085217 13 29 12.9 24.1 0.00 0.00 0.00 32
20260505084717 13 88 6.4 32.2 0.00 0.00 0.00 32
20260505084217 13 326 9.7 30.6 0.00 0.00 0.00 31
20260505083717 13 327 9.7 27.4 0.00 0.00 0.00 31
20260505083217 13 16 4.8 16.1 0.00 0.00 0.00 31
20260505082717 14 118 0.0 19.3 0.00 0.00 0.00 31
20260505082218 13 337 17.7 24.1 0.00 0.00 0.00 31
20260505081718 13 292 12.9 22.5 0.00 0.00 0.00 31
20260505081218 13 285 6.4 17.7 0.00 0.00 0.00 31
20260505080718 13 345 8.0 16.1 0.00 0.00 0.00 32
20260505080218 13 326 4.8 25.7 0.00 0.00 0.00 32
20260505075718 13 300 9.7 12.9 0.00 0.00 0.00 32
20260505075218 13 324 4.8 17.7 0.00 0.00 0.00 32
20260505074718 13 319 6.4 25.7 0.00 0.00 0.00 32
20260505074218 13 319 9.7 24.1 0.00 0.00 0.00 32
20260505073718 13 250 9.7 22.5 0.00 0.00 0.00 33
20260505073218 14 303 14.5 25.7 0.00 0.00 0.00 32
20260505072718 13 326 6.4 30.6 0.00 0.00 0.00 33
20260505072218 13 191 3.2 19.3 0.00 0.00 0.00 33
20260505071718 14 12 4.8 16.1 0.00 0.00 0.00 33
20260505071218 14 340 16.1 17.7 0.00 0.00 0.00 32
20260505070718 14 345 3.2 29.0 0.00 0.00 0.00 33
20260505070218 13 322 14.5 37.0 0.00 0.00 0.00 32
20260505065718 14 322 17.7 20.9 0.00 0.00 0.00 33
20260505065218 14 347 3.2 37.0 0.00 0.00 0.00 33
20260505064718 14 323 11.3 14.5 0.00 0.00 0.00 33
20260505064218 14 338 12.9 19.3 0.00 0.00 0.00 33
20260505063718 14 57 1.6 16.1 0.00 0.00 0.00 33
20260505063218 14 324 8.0 25.7 0.00 0.00 0.00 33
20260505062718 14 288 3.2 20.9 0.00 0.00 0.00 33
20260505062218 14 299 9.7 25.7 0.00 0.00 0.00 33
20260505061718 14 343 4.8 22.5 0.00 0.00 0.00 32
20260505061218 14 292 11.3 29.0 0.00 0.00 0.00 33
20260505060718 15 327 9.7 22.5 0.00 0.00 0.00 32
20260505060218 15 300 3.2 32.2 0.00 0.00 0.00 32
20260505055718 15 326 12.9 30.6 0.00 0.00 0.00 32
20260505055218 15 309 9.7 24.1 0.00 0.00 0.00 32
20260505054718 15 293 12.9 22.5 0.00 0.00 0.00 32
20260505054218 15 305 11.3 24.1 0.00 0.00 0.00 33
20260505053718 15 296 11.3 25.7 0.00 0.00 0.00 32
20260505053218 15 313 19.3 37.0 0.00 0.00 0.00 32
20260505052718 15 317 6.4 25.7 0.00 0.00 0.00 32
20260505052218 15 302 9.7 24.1 0.00 0.00 0.00 32
20260505051718 15 322 1.6 27.4 0.00 0.00 0.00 32
20260505051218 15 322 14.5 35.4 0.00 0.00 0.00 32
20260505050718 15 18 8.0 40.2 0.00 0.00 0.00 32
20260505050218 15 292 4.8 24.1 0.00 0.00 0.00 32
20260505041718 15 343 6.4 27.4 0.00 0.00 0.00 28
20260505041218 15 4 20.9 37.0 0.00 0.00 0.00 28
20260505040718 15 307 12.9 32.2 0.00 0.00 0.00 27
20260505040218 15 326 12.9 29.0 0.00 0.00 0.00 26
20260505035718 15 320 8.0 45.1 0.00 0.00 0.00 26
20260505035218 15 320 19.3 32.2 0.00 0.00 0.00 26
20260505034718 15 270 12.9 24.1 0.00 0.00 0.00 25
20260505034218 15 243 3.2 35.4 0.00 0.00 0.00 25
20260505033718 15 279 8.0 32.2 0.00 0.00 0.00 25
20260505033218 15 296 17.7 38.6 0.00 0.00 0.00 24
20260505032718 15 337 9.7 32.2 0.00 0.00 0.00 24
20260505032218 15 352 8.0 20.9 0.00 0.00 0.00 24
20260505031718 16 312 19.3 20.9 0.00 0.00 0.00 23
20260505031218 16 306 11.3 29.0 0.00 0.00 0.00 23
20260505030718 16 277 8.0 30.6 0.00 0.00 0.00 22
20260505030218 16 333 3.2 20.9 0.00 0.00 0.00 22
20260505025718 16 284 6.4 16.1 0.00 0.00 0.00 22
20260505025218 16 315 14.5 24.1 0.00 0.00 0.00 22
20260505024718 16 295 11.3 30.6 0.00 0.00 0.00 22
20260505024218 16 322 4.8 19.3 0.00 0.00 0.00 21
20260505023718 16 326 4.8 29.0 0.00 0.00 0.00 21
20260505023218 16 264 4.8 20.9 0.00 0.00 0.00 22
20260505022718 16 323 4.8 41.8 0.00 0.00 0.00 21
20260505022218 16 327 11.3 20.9 0.00 0.00 0.00 21
20260505021718 16 317 9.7 27.4 0.00 0.00 0.00 21
20260505021218 16 322 25.7 25.7 0.00 0.00 0.00 20
20260505020718 16 310 3.2 32.2 0.00 0.00 0.00 20
20260505020218 16 113 14.5 19.3 0.00 0.00 0.00 20
20260505015718 16 338 3.2 17.7 0.00 0.00 0.00 20
20260505015218 16 289 8.0 17.7 0.00 0.00 0.00 19
20260505014718 17 125 1.6 20.9 0.00 0.00 0.00 20
20260505014218 17 322 11.3 19.3 0.00 0.00 0.00 19
20260505013718 17 327 12.9 25.7 0.00 0.00 0.00 20
20260505013218 17 282 3.2 24.1 0.00 0.00 0.00 20
20260505012718 17 298 8.0 35.4 0.00 0.00 0.00 19
20260505012218 17 305 12.9 30.6 0.00 0.00 0.00 19
20260505011718 17 358 9.7 35.4 0.00 0.00 0.00 19
20260505011218 17 309 3.2 20.9 0.00 0.00 0.00 19
20260505010718 17 28 12.9 29.0 0.00 0.00 0.00 19
20260505010218 17 2 3.2 17.7 0.00 0.00 0.00 20
20260505005718 17 324 8.0 19.3 0.00 0.00 0.00 20
20260505005218 17 331 8.0 19.3 0.00 0.00 0.00 20
20260505004718 17 313 9.7 17.7 0.00 0.00 0.00 20
20260505004218 17 357 8.0 29.0 0.00 0.00 0.00 20
20260505003718 17 315 6.4 19.3 0.00 0.00 0.00 21
20260505003218 17 260 4.8 33.8 0.00 0.00 0.00 20
20260505002718 17 313 19.3 38.6 0.00 0.00 0.00 20
20260505002218 17 329 6.4 32.2 0.00 0.00 0.00 20
20260505001718 17 258 6.4 19.3 0.00 0.00 0.00 21
20260505001218 17 274 19.3 30.6 0.00 0.00 0.00 20
20260505000718 17 274 11.3 29.0 0.00 0.00 0.00 20
20260505000219 17 23 11.3 30.6 0.00 0.00 0.00 21
20260504235718 17 329 14.5 37.0 0.00 0.00 0.00 20
20260504235218 18 315 12.9 35.4 0.00 0.00 0.00 20
20260504234718 17 312 22.5 35.4 0.00 0.00 0.00 19
20260504234218 18 288 1.6 24.1 0.00 0.00 0.00 19
20260504233718 18 1 14.5 22.5 0.00 0.00 0.00 19
20260504233218 18 319 9.7 27.4 0.00 0.00 0.00 19
20260504232718 18 254 8.0 17.7 0.00 0.00 0.00 18
20260504232218 18 281 9.7 32.2 0.00 0.00 0.00 18
20260504231718 18 241 6.4 25.7 0.00 0.00 0.00 19